Hourly Weather Roundup
Issued by NWS Central Illinois

Home | Current Version | Previous Version | Text Only | Print | Product List | Glossary On
Versions: 1 2 3 4 5 6 7 8 9 10 11 12 13 14 15 16 17 18 19 20 21 22 23 24 25 26 27 28 29 30 31 32 33 34 35 36 37 38 39 40 41 42 43 44 45 46 47 48 49 50
000
NZUS43 KILX 070810
HWRILX

AREA WEATHER ROUNDUP
NATIONAL WEATHER SERVICE, LINCOLN IL
200 AM CST WED DEC 07 2016


CITY           SKY/WX    TMP DP  RH WIND       PRES   REMARKS
BLOOMINGTON    CLEAR     27  19  72 W10       30.10R WCI  17
CHAMPAIGN      PTCLDY    30  22  72 W12       30.11R WCI  20
DANVILLE       CLEAR     30  23  76 W9        30.07R WCI  21
DECATUR        PTCLDY    30  20  66 NW10      30.11S WCI  21
EFFINGHAM      MOCLDY    32  25  74 NW9       30.13R WCI  24
FLORA          MOCLDY    33  26  75 NW6       30.14R WCI  28
GALESBURG      PTCLDY    27  19  71 W14       30.09S WCI  16
JACKSONVILLE   PTCLDY    28  21  74 W3        30.12F
LACON          PTCLDY    28  18  65 W9        30.08R WCI  20
LAWRENCEVILLE  MOCLDY    30  26  85 NW8       30.12R WCI  22
LITCHFIELD     CLOUDY    30  23  74 NW8       30.11S WCI  23
$$


CITY           SKY/WX    TMP DP  RH WIND       PRES   REMARKS
LINCOLN        PTCLDY    31  22  67 W3        30.12S
MACOMB         PTCLDY    29  19  64 W13       30.13R WCI  19
MATTOON        PTCLDY    29  22  75 NW14      30.08F WCI  18
MT CARMEL AP   PTCLDY    32  28  85 N3        30.12R
OLNEY-NOBLE AP MOCLDY    32  28  86 NW6       30.13R WCI  26
PARIS          PTCLDY    29  25  86 NW9       30.11R WCI  20
PEORIA         PTCLDY    29  18  63 W10       30.11R WCI  20
PONTIAC        PTCLDY    30  23  74 W13       30.08R WCI  20
RANTOUL        PTCLDY    31  25  78 W7        30.10R WCI  25
SPRINGFIELD    CLOUDY    32  21  64 W7        30.12F WCI  26
TAYLORVILLE    CLOUDY    31  22  68 NW10      30.11R WCI  22
$$

...REGIONAL REPORTS...


CITY           SKY/WX    TMP DP  RH WIND       PRES   REMARKS
CHICAGO O`HARE PTCLDY    26  18  71 W15       30.00R WCI  14
KANKAKEE       PTCLDY    28  21  74 W13G18    30.06R WCI  18
MOLINE         CLOUDY    28  16  60 W20G26    30.07R WCI  15
MOUNT STERLING PTCLDY    29  18  61 NW8       30.10S WCI  21
MOUNT VERNON   NOT AVBL
PITTSFIELD     CLOUDY    30  19  65 CALM      30.13S
QUINCY         PTCLDY    29  17  61 NW7       30.11S WCI  22
ROCKFORD       PTCLDY    25  17  72 W8G18     30.02R WCI  16
$$


CITY           SKY/WX    TMP DP  RH WIND       PRES   REMARKS
BURLINGTON     CLOUDY    28  16  60 W10       30.10S WCI  19
CEDAR RAPIDS   PTCLDY    20  15  81 W12       30.06R WCI   8
DES MOINES     CLOUDY    22  11  62 W17G24    30.14R WCI   8
KIRKSVILLE     MOCLDY    28  14  55 NW10      30.13R WCI  19
OTTUMWA        CLEAR     25  12  58 W13       30.11R WCI  14
ST LOUIS       CLOUDY    32  18  56 NW5       30.14R WCI  27
$$


CITY           SKY/WX    TMP DP  RH WIND       PRES   REMARKS
TERRE HAUTE    PTCLDY    31  22  69 NW7       30.10R WCI  24
EVANSVILLE     CLOUDY    36  31  82 N3        30.13R
INDIANAPOLIS   CLEAR     27  22  81 W6        30.07R WCI  20
LAFAYETTE      PTCLDY    28  22  78 W10       30.08R WCI  19
MADISON        MOCLDY    23  16  74 SW8G21    29.93R WCI  14
MILWAUKEE      CLEAR     26  16  65 W17G24    29.91R WCI  13
$$





USA.gov is the U.S. government's official web portal to all federal, state and local government web resources and services.